Location: *
(55.7440°S, 141.3888°W)
Time: 03:33:54
(UTC+00:00)

Daily predictions for brighter satellites

Satellite Brightness Start Highest point End
(mag) Time Altitude Azimuth Time Altitude Azimuth Time Altitude Azimuth
CSL-04 Rocket 4.0 05:07:59 10° SSE 05:13:19 47° E 05:18:40 10° N
Nadezhda 1 Rocket 4.3 05:08:40 10° SSW 05:14:56 76° W 05:21:03 10° N
Cosmos 405 3.3 05:11:36 10° SSW 05:15:11 69° W 05:18:44 10° N
Ariane Rocket 4.3 05:11:32 10° SE 05:15:35 23° E 05:19:35 10° NE
Cosmos 1900 4.4 05:11:14 10° SW 05:16:09 87° NW 05:21:03 10° NE
Cosmos 2221 3.3 05:13:56 10° SSW 05:18:14 56° W 05:22:30 10° N
Cosmos 1892 2.8 05:15:08 10° N 05:19:02 89° W 05:22:59 10° SSE
Cosmos 540 Rocket 4.3 05:14:32 10° SW 05:19:36 52° WNW 05:24:39 10° N
COSMOS 2428 3.3 05:15:17 10° SW 05:20:55 57° WNW 05:26:31 10° NNE
Cosmos 2333 Rocket 3.2 05:16:45 10° SW 05:22:17 46° WNW 05:27:48 10° N
Cosmos 841 Rocket 4.4 05:17:18 10° SW 05:22:23 50° WNW 05:27:28 10° N
Cosmos 1939 Rocket 4.3 05:21:11 10° S 05:25:16 46° WSW 05:29:18 10° NW
SL-08 RB Rocket 4.3 05:21:40 10° SSE 05:26:02 37° E 05:30:17 10° NNE
Okean-O 2.9 05:22:14 10° SSE 05:26:48 80° WSW 05:31:18 10° NNW
Lacrosse 5 rocket 1.7 05:23:49 10° W 05:28:22 74° S 05:32:38 10° E
Cosmos 1408 2.6 05:24:41 10° N 05:28:28 82° E 05:32:17 10° SSE
Helios 1A Rocket 3.4 05:25:47 10° SSE 05:30:00 68° WSW 05:34:11 10° NNW
USA 229 DEB 4.1 05:24:45 10° NNW 05:31:56 47° NE 05:38:48 10° SE
USA 229 4.1 05:24:52 10° NNW 05:32:02 46° NE 05:38:54 10° SE
Cosmos 2237 Rocket 2.3 05:26:18 10° SW 05:32:07 85° ESE 05:37:52 10° NE
Cosmos 1741 Rocket 4.2 05:27:35 10° NNW 05:32:53 80° WSW 05:38:16 10° SSE
Cosmos 2219 4.3 05:28:27 10° NNE 05:32:53 24° ENE 05:37:20 10° SE
USA 267 3.5 05:27:03 10° ESE 05:33:24 46° NE 05:39:43 10° NW
Cosmos 1346 Rocket 2.8 05:29:54 10° N 05:33:56 73° ENE 05:38:01 10° SSE
USA 281 3.3 05:27:57 10° SSE 05:34:39 88° NE 05:41:17 10° NNW
ATLAS CENTAUR R/B 2.4 05:32:12 10° WNW 05:36:53 59° SW 05:41:43 10° SE
SJ-6B 3.7 05:36:44 10° SSE 05:40:11 30° E 05:43:37 10° NNE
Cosmos 1825 2.1 05:37:48 10° N 05:41:38 75° E 05:45:30 10° SSE
Cosmos 1980 3.8 05:37:11 10° SW 05:42:56 81° WNW 05:48:38 10° NNE
Cosmos 1745 Rocket 4.3 05:36:53 10° NNW 05:43:18 77° WSW 05:49:44 10° S
Cosmos 1076 Rocket 3.6 05:39:30 10° N 05:43:54 88° E 05:48:24 10° SSE
CENTAUR R/B 3.5 05:39:09 10° WSW 05:45:36 43° S 05:51:07 10° ESE
Cosmos 1867 3.8 05:40:11 10° SW 05:45:37 66° SE 05:50:38 12° ENE
NOSS 3-1 (A) 4.3 05:38:49 10° NNW 05:46:59 49° NE 05:54:06 10° SE
CZ-4 R/B 2.6 05:44:09 10° S 05:48:19 50° WSW 05:52:24 10° NW
ISS -2.8 05:47:15 10° W 05:50:26 34° NNW 05:52:49 15° NE
CSL-04 Debris 4.2 05:48:02 10° SSE 05:53:34 89° ENE 05:59:01 10° NNW
Cosmos 1340 4.3 05:51:07 10° NW 05:54:45 39° WSW 05:58:25 10° S
H-2A R/B 4.5 05:51:12 10° N 05:55:13 46° W 05:59:18 10° SSW
Cosmos 1633 3.7 05:53:44 15° NE 05:56:01 26° E 05:59:09 10° SSE
SAR-Lupe-2 3.9 05:53:37 14° NE 05:56:34 53° ESE 06:00:11 10° S
Okean 3 Rocket 4.1 05:53:25 10° NNE 05:57:43 43° E 06:02:05 10° SSE
SL-16 R/B 2.5 05:52:28 10° SSW 05:58:13 61° SE 06:03:03 14° NE
MetOp-A 4.5 05:56:08 10° SSE 06:01:24 46° E 06:06:36 10° N
Cosmos 1766 Rocket 4.0 05:58:56 10° NNE 06:03:08 44° E 06:07:23 10° SSE
COSMOS 2487 4.5 06:00:07 10° WNW 06:03:19 33° SW 06:06:33 10° SSE
Meteor 1-26 Rocket 4.2 05:59:16 10° SSW 06:04:49 70° ESE 06:09:34 14° NNE
NOSS 3-1 (C) 4.0 05:56:45 10° NW 06:05:16 73° NE 06:12:34 10° SE
Cosmos 2184 Rocket 4.4 05:59:48 10° NNE 06:05:51 46° E 06:11:55 10° SSE
Cosmos 2219 Rocket 4.0 06:01:35 10° SW 06:06:17 27° WNW 06:10:58 10° NNW
Cosmos 2227 Rocket 3.0 06:02:16 10° NNE 06:07:14 31° ENE 06:12:14 10° SE
MOS 1-B Rocket 4.4 06:00:13 10° NNE 06:07:43 83° WNW 06:14:11 10° SSW
USA 234 4.0 06:06:09 13° NNE 06:11:47 42° NW 06:18:02 10° WSW
Cosmos 1709 Rocket 4.2 06:06:48 10° NNW 06:13:09 79° WSW 06:19:29 10° S
Cosmos 1151 Rocket 3.0 06:08:48 10° S 06:13:16 84° ESE 06:16:56 15° NNE
Cosmos 1606 3.4 06:10:03 10° SSW 06:13:51 53° W 06:17:34 10° N
CZ-2C R/B 4.3 06:10:13 10° S 06:15:23 49° WSW 06:20:47 10° NW
USA 186 2.0 06:12:37 10° SSE 06:15:59 78° WSW 06:19:17 10° NNW
SPOT 3 Rocket 4.3 06:11:39 10° SSE 06:16:23 33° E 06:19:40 17° NNE
Cosmos 1812 4.2 06:14:37 10° S 06:18:00 26° ESE 06:20:02 17° ENE
Cosmos 1441 Rocket 3.7 06:16:25 18° NNE 06:18:50 40° E 06:22:29 10° SSE
USA 238 DEB 4.3 06:12:55 10° WSW 06:20:02 57° SSE 06:26:46 10° E
USA 238 4.3 06:13:01 10° WSW 06:20:07 57° SSE 06:26:52 10° E
FREGAT/IRIS 2.1 06:20:50 10° SSE 06:23:32 84° ENE 06:25:23 18° NNW
NOSS 3-2 (A) 4.0 06:18:13 10° SW 06:25:20 60° SSE 06:31:04 12° ENE
Cosmos 2074 Rocket 4.1 06:20:11 10° N 06:26:19 62° E 06:32:36 10° SSE
Cosmos 1328 Rocket 3.7 06:22:42 10° SSW 06:27:17 83° W 06:30:50 16° N
Resurs 01 Rocket 2.4 06:24:02 10° SSE 06:28:13 34° E 06:30:29 21° NE
Meteor 1-4 Rocket 2.8 06:26:05 10° S 06:29:39 54° ESE 06:31:29 25° NE
Cosmos 1933 3.8 06:25:37 10° SSW 06:29:46 60° W 06:33:14 14° N
ATLAS 3B R/B 3.9 06:22:51 10° WSW 06:30:00 45° S 06:36:54 10° ESE
Cosmos 389 Rocket 3.5 06:28:04 10° SSW 06:31:34 44° W 06:34:36 13° NNW
Cosmos 2151 3.5 06:29:51 10° NNW 06:34:07 63° WSW 06:38:28 10° S
ARIANE 5 R/B 3.9 06:30:50 10° SE 06:34:21 23° E 06:35:37 20° ENE
Meteor 2-17 Rocket 4.4 06:28:23 10° N 06:34:33 81° E 06:40:49 10° SSE
OBJECT-B 0.7 06:32:10 10° SSE 06:35:33 79° ENE 06:37:52 18° N
ARGOS 3.8 06:31:21 10° S 06:36:43 59° WSW 06:42:03 10° NW
Cosmos 1408 Rocket 3.7 06:38:28 20° N 06:41:22 58° E 06:45:44 10° SSE
Terra 3.9 06:41:37 10° ESE 06:43:10 11° E 06:44:12 11° E
Timation 2 Rocket 4.1 06:37:13 10° NNW 06:44:01 75° ENE 06:50:38 10° SE
MTI 3.8 06:43:53 34° NE 06:45:05 66° ESE 06:48:18 10° S
Cosmos 2297 Rocket 2.2 06:41:13 10° NNW 06:46:50 63° ENE 06:52:29 10° SE
Cosmos 1603 4.4 06:42:59 10° SSW 06:48:38 49° SE 06:52:42 18° ENE
Cosmos 1782 3.0 06:44:51 10° SSW 06:49:01 75° W 06:51:28 23° N
Lacrosse 4 Rocket 4.0 06:45:52 10° SSW 06:49:10 19° SSE 06:52:25 10° ESE
H-2A R/B 3.6 06:47:05 10° S 06:51:41 35° WSW 06:56:19 10° NW
Cosmos 968 Rocket 3.4 06:49:23 10° NNW 06:54:33 89° ENE 06:59:47 10° SSE
EO 1 Del DPAF 4.2 06:53:17 25° ENE 06:54:50 35° ESE 06:58:23 10° S
Ariane Rocket 3.2 06:49:56 10° SSE 06:55:06 75° WSW 07:00:13 10° NNW
SPOT 5 4.5 06:55:19 10° SE 06:59:23 22° E 07:00:55 20° ENE
Aureole 1 4.1 06:56:51 10° SSW 06:59:56 87° WNW 07:00:52 43° NNE
Cosmos 1515 Rocket 3.9 06:56:58 10° SSW 07:01:30 65° W 07:04:13 23° N
Meteor 2-6 Rocket 4.3 06:57:02 10° SSW 07:02:49 87° ESE 07:06:25 25° NNE
Nadezhda 3 Rocket 4.0 06:58:19 10° SSW 07:04:36 80° W 07:08:52 22° N
Cosmos 2154 Rocket 4.0 07:01:43 18° N 07:06:33 75° E 07:13:01 10° SSE
Lacrosse 5 rocket 1.3 07:03:13 10° WSW 07:07:38 71° NNW 07:09:23 33° NE
Cosmos 773 Rocket 4.1 07:03:36 10° SSW 07:08:51 71° WNW 07:11:36 28° NNE
USA 245 4.2 07:07:12 10° SE 07:08:40 20° ESE 07:08:40 20° ESE
Meteor 2-3 Rocket 4.0 07:04:48 10° NNW 07:10:40 73° WSW 07:16:33 10° SSE
SPOT 1/Viking Rocket 4.2 07:06:02 10° SSE 07:10:58 38° E 07:12:52 29° NE
Cosmos 1486 Rocket 4.3 07:07:43 10° NW 07:12:59 69° WSW 07:18:17 10° SSE
Resurs 1-3 3.9 07:10:10 10° SSE 07:14:40 71° WSW 07:18:10 16° NNW
SJ-6B 4.3 07:11:21 10° S 07:14:54 36° WSW 07:18:27 10° NW
Cosmos 2237 Rocket 4.0 07:11:07 10° SW 07:15:34 24° WNW 07:19:55 10° NNW
MetOp-B 4.3 07:10:31 10° SSE 07:15:53 56° E 07:18:36 28° NNE
Cosmos 1707 Rocket 4.2 07:12:06 10° S 07:16:23 45° ESE 07:18:01 31° ENE
Cosmos 2219 3.3 07:10:42 10° NW 07:16:26 84° SW 07:22:12 10° SE
ATLAS CENTAUR R/B 3.7 07:12:23 10° WSW 07:16:40 30° S 07:21:00 10° SE
USA 267 3.2 07:10:13 10° ESE 07:16:54 85° NNE 07:23:32 10° WNW
SeaSat 1 2.7 07:13:20 10° SE 07:18:11 48° ENE 07:20:22 29° N
SJ 16-02 3.3 07:18:52 15° E 07:18:52 15° E 07:21:26 10° ESE
Kosmos-1783 3.4 07:15:03 10° WNW 07:20:55 80° SW 07:23:02 10° SE
Cosmos 1503 Rocket 4.1 07:17:27 11° NNW 07:22:46 89° WSW 07:28:16 10° SSE
USA 229 DEB 4.1 07:15:12 10° WNW 07:22:47 74° SSW 07:29:56 10° SE
USA 229 4.1 07:15:17 10° WNW 07:22:52 74° SSW 07:30:01 10° SE
Meteor 1-10 Rocket 4.3 07:17:25 10° SSW 07:23:18 82° WNW 07:26:35 28° N
Cosmos 1437 Rocket 3.4 07:20:06 10° S 07:23:52 43° ESE 07:24:57 34° ENE
Cosmos 2228 Rocket 3.2 07:19:24 10° SSW 07:23:55 74° W 07:25:53 33° N
Cosmos 405 Rocket 3.7 07:24:10 31° ENE 07:24:39 33° E 07:28:20 10° SSE
Cosmos 2082 3.7 07:21:56 22° N 07:25:33 61° ENE 07:31:11 10° SE
NOSS 3-2 (C) 3.7 07:19:10 10° SW 07:26:17 72° SSE 07:30:40 20° ENE
USA 81 4.0 07:23:26 28° N 07:26:20 80° E 07:31:44 10° S
ISS -1.4 07:24:34 10° WNW 07:25:45 14° NW 07:25:45 14° NW
Landsat 7 3.9 07:22:57 10° SSE 07:27:48 63° ENE 07:29:48 34° N
Cosmos 1867 4.4 07:24:03 10° SW 07:29:00 37° WNW 07:31:18 26° NNW
Cosmos 923 Rocket 4.3 07:24:12 10° SSW 07:29:36 61° ESE 07:32:15 29° NE
Cosmos 1184 Rocket 2.8 07:28:54 48° NNW 07:29:44 80° WSW 07:33:05 10° SSE
IGS 5A 3.4 07:25:42 10° SSE 07:29:58 73° ENE 07:31:28 38° N
Nimbus 7 Rocket 4.4 07:26:53 30° NNE 07:30:03 90° ENE 07:36:03 10° SSW
Cosmos 1633 4.1 07:27:48 13° NW 07:30:44 34° WSW 07:34:10 10° S
Cosmos 1943 3.3 07:25:34 10° SSW 07:31:19 72° SE 07:34:13 30° NE
Cosmos 1354 Rocket 4.1 07:29:12 13° NNW 07:33:59 84° WSW 07:39:26 10° SSE
Cosmos 2366 rocket 4.4 07:31:28 29° NE 07:34:09 46° E 07:40:04 10° SSE
Cosmos 1862 3.3 07:33:22 42° N 07:34:40 77° E 07:38:48 10° SSE
CENTAUR R/B 2.4 07:30:39 10° SW 07:37:00 74° SSE 07:40:25 24° ENE
Cosmos 1633 Rocket 4.2 07:36:35 27° ENE 07:37:19 28° E 07:41:07 10° SSE
NOSS 3-1 (A) 4.2 07:29:31 10° WNW 07:37:56 75° SSW 07:45:04 10° SE
Cosmos 1500 Rocket 3.6 07:36:43 31° NNW 07:38:52 80° WSW 07:43:25 10° S
Sich 1 3.5 07:38:07 39° NE 07:39:09 48° E 07:43:27 10° SSE
SL-16 R/B 3.3 07:36:56 10° SW 07:42:07 35° WNW 07:44:56 22° NNW
ERS-1 Rocket 3.5 07:38:47 10° SSE 07:43:41 44° E 07:45:07 35° NE
Cosmos 1743 Rocket 4.0 07:47:55 27° NNW 07:50:17 63° WSW 07:54:49 10° S
Cosmos 2227 Rocket 2.6 07:45:15 10° NW 07:50:57 67° SW 07:56:43 10° SSE
Meteor 1-27 Rocket 3.9 07:46:11 10° SSW 07:52:15 79° W 07:55:04 33° N
Thor Agena Rocket 4.0 07:50:15 30° NNW 07:52:32 53° WNW 07:57:36 10° SSW
Cosmos 1812 3.6 07:50:12 10° SSW 07:53:57 41° W 07:55:07 32° NW
SPOT 3 Rocket 4.3 07:50:57 10° S 07:56:02 52° WSW 08:00:20 14° NW
Cosmos 1862 Rocket 3.9 07:52:28 10° S 07:56:53 56° ESE 07:58:04 42° NE
Cosmos 1727 Rocket 4.1 07:50:44 10° S 07:57:13 72° ESE 08:00:12 34° NNE
Cosmos 2263 Rocket 2.9 07:57:04 33° NE 07:58:09 36° ENE 08:03:16 10° SE
Cosmos 1242 Rocket 4.1 07:57:42 10° S 08:00:58 26° ESE 08:01:49 24° E
PSLV R/B 4.4 08:00:21 33° ENE 08:02:04 49° ESE 08:06:45 10° S
Resurs 01 Rocket 2.8 08:00:30 10° S 08:04:47 41° WSW 08:08:03 16° NW
OBJECT-B 3.8 08:05:43 10° SSW 08:07:23 13° WSW 08:09:02 10° W
Cosmos 1461 4.3 08:06:00 10° SW 08:09:34 32° SSE 08:12:33 13° E
Okean 1-7 4.4 08:06:03 10° S 08:09:55 30° ESE 08:11:17 25° E
Cosmos 1680 Rocket 3.5 08:05:05 10° SSW 08:10:27 88° ESE 08:12:20 42° NNE
CARTOSAT-1 3.5 08:06:06 10° SSE 08:10:33 81° ENE 08:11:40 50° N
ARIANE 5 R/B 3.0 08:06:48 10° S 08:11:11 60° WSW 08:13:09 30° NW
USA 238 DEB 3.7 08:04:15 10° SW 08:11:16 68° NW 08:14:20 35° NNE
USA 238 3.7 08:04:21 10° SW 08:11:23 68° NW 08:14:26 34° NNE
Cosmos 1805 Rocket 3.8 08:14:38 38° NW 08:16:16 67° WSW 08:20:48 10° S
NOSS 3-2 (A) 3.6 08:09:39 10° SW 08:16:18 58° NW 08:18:26 38° N
Cosmos 2341 Rocket 4.3 08:13:43 25° NNW 08:17:33 69° WSW 08:24:01 10° S
Cosmos 1666 Rocket 3.6 08:16:44 53° NNE 08:17:42 72° E 08:22:15 10° SSE
CZ-4 R/B 4.3 08:17:01 36° NE 08:18:53 57° ESE 08:23:54 10° S
Cosmos 2112 Rocket 4.0 08:13:59 10° SSW 08:19:22 90° ESE 08:21:10 43° NNE
ATLAS 3B R/B 3.2 08:14:34 10° SW 08:21:55 62° SSE 08:28:56 10° ENE
Terra 1.9 08:17:06 10° SSE 08:21:56 62° ENE 08:23:06 47° NNE
Spot 2 Rocket 3.7 08:17:51 10° SSE 08:22:57 67° WSW 08:25:28 30° NW
SWAS 4.4 08:20:45 10° SW 08:25:09 82° NW 08:25:58 58° NNE
Cosmos 2218 Rocket 4.0 08:24:07 34° NNW 08:27:03 84° W 08:33:22 10° S
Landsat 4 4.5 08:27:51 38° E 08:28:35 43° ESE 08:32:16 10° S
EO 1 Del DPAF 4.5 08:28:15 29° WNW 08:28:50 30° W 08:32:19 10° SSW
Lacrosse 4 Rocket 2.6 08:24:41 10° SW 08:28:58 41° SE 08:31:33 21° E
GEOS 3 Rocket 3.7 08:24:03 10° SE 08:29:00 51° NE 08:29:58 45° NNE
Cosmos 2297 Rocket 3.6 08:25:55 10° WNW 08:31:14 39° SW 08:36:36 10° SSE
Cosmos 1356 4.3 08:32:53 40° E 08:32:53 40° E 08:35:55 10° SSE
Cosmos 1603 4.2 08:27:18 10° SW 08:32:50 47° WNW 08:34:35 36° NNW
SPOT 5 3.1 08:32:44 10° SSE 08:38:01 81° WSW 08:40:08 38° NNW
SL-8 Rocket 4.3 08:37:21 27° NW 08:40:51 62° WSW 08:47:13 10° S
ADEOS II 4.3 08:38:04 10° E 08:41:47 20° SE 08:45:30 10° S
Cosmos 1777 Rocket 4.5 08:39:08 24° NW 08:42:20 61° WSW 08:47:41 10° SSE
Cosmos 2227 4.2 08:41:30 41° N 08:43:30 70° ENE 08:49:17 10° SE
Cosmos 2082 Rocket 4.4 08:39:13 10° SSW 08:43:51 24° SSE 08:48:28 10° ESE
Cosmos 158 Rocket 4.5 08:38:48 10° SW 08:43:59 49° WNW 08:45:24 39° NNW
Lacrosse 5 rocket 3.1 08:42:53 10° W 08:45:00 20° WNW 08:45:00 20° WNW
Cosmos 1821 Rocket 4.1 08:44:13 38° NNE 08:46:40 65° E 08:53:03 10° SSE
Meteor 1-19 Rocket 4.1 08:41:05 10° SSW 08:46:41 89° WNW 08:48:36 44° NNE
SPOT 1/Viking Rocket 4.4 08:45:27 10° S 08:50:29 46° WSW 08:53:30 22° NW
Cosmos 2242 Rocket 3.5 08:46:00 10° S 08:50:32 84° ESE 08:51:25 58° NNE
Resurs 1-4 Rocket 3.1 08:52:45 22° ENE 08:55:39 41° ESE 09:00:40 10° S
SeaSat 1 3.5 08:50:57 10° SSE 08:55:42 44° SW 09:00:08 12° WNW
SJ 16-02 1.3 08:55:49 57° NNW 08:56:44 89° E 09:01:15 10° SSE
ATLAS CENTAUR R/B 3.6 08:52:24 10° SW 08:56:47 32° SSE 09:01:07 10° ESE
Cosmos 1703 Rocket 3.5 08:54:43 10° S 08:59:11 82° ESE 09:00:01 58° NNE
Cosmos 1437 Rocket 4.3 08:56:44 10° SW 08:59:55 24° W 09:00:21 23° WNW
USA 267 3.3 08:53:19 10° E 08:59:57 81° S 09:06:36 10° W
Cosmos 405 Rocket 4.2 08:59:16 26° WNW 09:00:39 34° WSW 09:04:24 10° S
Meteor 1-20 Rocket 4.3 09:00:58 40° NNW 09:03:16 84° WSW 09:09:12 10° SSE
Meteor 2-4 Rocket 3.6 08:58:54 10° SSW 09:04:32 81° ESE 09:06:26 43° NNE
Cosmos 1898 Rocket 3.7 09:03:52 46° NNE 09:05:08 60° ENE 09:10:22 10° SSE
COSMOS 2406 4.4 09:01:32 10° SSW 09:07:04 41° SE 09:12:31 10° ENE
Cosmos 1271 Rocket 3.4 09:06:41 10° S 09:10:38 50° ESE 09:11:27 43° ENE
MOLY 3-50 4.0 09:08:39 10° WSW 09:11:48 54° NW 09:12:34 47° N
CZ-2D R/B 2.8 09:09:18 27° NE 09:12:07 53° ESE 09:17:33 10° S
NPP 4.4 09:10:38 24° NE 09:13:39 47° ESE 09:18:54 10° S
Helios 1B rocket 2.3 09:13:29 66° N 09:14:04 86° WNW 09:18:17 10° SSW
ALOS 2 3.8 09:10:12 10° SSE 09:14:12 31° E 09:15:01 29° ENE
Cosmos 1943 4.3 09:10:09 10° SW 09:14:56 28° WNW 09:16:02 26° NW
Cosmos 1633 Rocket 3.8 09:13:38 35° WNW 09:14:56 45° WSW 09:19:15 10° S
NOSS 3-2 (C) 3.9 09:10:41 10° SW 09:16:53 41° WNW 09:18:05 37° NNW
Cosmos 1470 Rocket 3.8 09:20:14 49° NW 09:21:11 62° WSW 09:25:35 10° S
ERS-1 Rocket 4.1 09:17:44 10° S 09:22:28 39° WSW 09:25:07 22° WNW
NOSS 3-4 (A) 4.5 09:20:05 33° N 09:23:04 46° ENE 09:30:20 10° SE
NOSS 3-4 (C) 4.5 09:20:12 33° N 09:23:10 45° ENE 09:30:25 10° SE
Cosmos 1238 Rocket 2.8 09:23:51 66° NNE 09:24:22 78° E 09:29:03 10° SSE
Okean 1 4.3 09:22:33 10° SSW 09:26:21 35° W 09:26:42 34° WNW
Cosmos 1536 4.3 09:25:48 25° ENE 09:26:31 27° E 09:30:00 10° SSE
CENTAUR R/B 2.9 09:21:49 10° WSW 09:27:06 34° WNW 09:27:34 33° NW
Cosmos 1605 Rocket 4.3 09:26:47 34° NNE 09:29:16 54° E 09:35:19 10° SSE
Cosmos 1844 Rocket 3.3 09:30:01 35° NE 09:31:27 41° ENE 09:36:44 10° SE
Cosmos 2084 3.4 09:28:37 10° SW 09:32:58 86° SE 09:34:22 42° ENE
Meteor 1-29 2.9 09:35:01 90° ENE 09:35:01 90° ENE 09:38:35 10° SSW
Cosmos 1242 Rocket 3.5 09:32:25 10° SSW 09:35:49 37° W 09:35:49 37° W
Cosmos 2227 Rocket 4.3 09:31:22 10° W 09:36:05 25° SSW 09:40:48 10° SSE
Cosmos 1934 Rocket 4.0 09:33:43 39° N 09:36:21 85° E 09:42:47 10° SSE
CZ-4C R/B 4.1 09:34:31 22° NE 09:36:58 26° ENE 09:42:33 10° ESE
Cosmos 1602 4.4 09:36:27 41° WNW 09:37:08 45° WSW 09:41:01 10° S
Cosmos 1174 4.4 09:38:12 34° W 09:39:16 45° SW 09:42:26 10° SE
Cosmos 1535 Rocket 4.4 09:37:52 39° N 09:40:20 85° E 09:46:36 10° SSE
RESURS DK-1 4.4 09:41:25 16° ENE 09:41:42 16° ENE 09:44:20 10° ESE
Cosmos 1844 4.4 09:40:00 33° NNE 09:41:42 41° ENE 09:47:10 10° SE
Cosmos 2263 Rocket 2.6 09:38:43 26° WNW 09:41:53 60° SW 09:47:31 10° SSE
ATLAS 2AS CENTAUR R/B 3.0 09:40:59 35° NNE 09:42:38 41° ENE 09:48:32 10° SE
Intercosmos 25 3.9 09:36:38 10° SSW 09:42:59 69° W 09:44:05 50° NNW
Cosmos 2123 Rocket 4.2 09:37:20 10° SSW 09:43:35 62° W 09:46:02 37° NNW
Cosmos 372 Rocket 4.4 09:42:19 39° NNE 09:43:43 49° ENE 09:48:51 10° SE
Okean 3 3.4 09:40:05 10° SSW 09:44:31 85° W 09:45:22 58° N
Cosmos 1048 Rocket 3.9 09:41:35 10° SSW 09:46:50 89° ESE 09:48:51 38° NNE
Okean 1-7 3.6 09:43:31 10° SSW 09:47:37 41° W 09:48:08 39° WNW
Cosmos 1461 2.6 09:45:02 10° SW 09:48:53 69° NW 09:48:53 69° NW
Cosmos 494 Rocket 4.1 09:46:03 10° SSW 09:51:16 71° ESE 09:54:05 28° NE
IRS-1D 4.2 09:50:24 22° NE 09:53:29 51° ESE 09:58:29 10° S
Cosmos 990 Rocket 4.3 09:52:04 34° NW 09:54:16 62° WSW 09:59:31 10° SSE
Cosmos 1933 Rocket 4.3 09:53:31 36° WNW 09:54:47 45° WSW 09:59:12 10° S
Meteor 1-5 Rocket 4.3 09:53:37 40° N 09:55:55 86° ENE 10:01:46 10° SSE
Terra 3.4 09:55:19 10° S 09:59:24 27° WSW 10:01:59 17° WNW
Cosmos 1447 Rocket 4.5 10:00:01 10° SSW 10:06:27 79° W 10:09:22 34° N
Cosmos 1500 3.7 10:06:15 44° WNW 10:06:51 48° WSW 10:10:41 10° S
GEOS 3 Rocket 4.1 10:02:11 10° SE 10:07:09 56° SSW 10:11:03 16° WNW
Cosmos 1666 2.6 10:06:41 65° N 10:07:15 89° ENE 10:11:14 10° SSE
Lacrosse 4 Rocket 1.8 10:03:29 10° SW 10:07:46 46° WNW 10:07:50 45° NW
Cosmos 1833 Rocket 3.0 10:02:09 10° SSW 10:07:50 67° SE 10:13:26 10° NE
Gbstr 26 Del rocket 4.0 10:03:22 15° WNW 10:09:11 59° N 10:14:58 10° E
AQUA 3.8 10:08:22 38° NNE 10:10:14 87° ESE 10:15:07 10° SSW
ATLAS 3B R/B 2.8 10:05:39 10° SW 10:12:46 58° NW 10:16:51 25° NNE
COSMOS 2455 4.4 10:11:21 18° NE 10:13:54 23° ENE 10:18:32 10° ESE
Cosmos 1937 Rocket 3.8 10:12:24 33° NW 10:14:45 64° WSW 10:20:08 10° SSE
ARIANE 5 R/B 3.8 10:11:00 10° NE 10:15:52 41° ESE 10:20:51 10° S
Cosmos 1378 3.0 10:15:41 10° SSW 10:19:31 86° W 10:20:07 61° N
ADEOS II 2.2 10:17:38 26° NNE 10:20:43 76° ESE 10:26:05 10° SSW
Cosmos 1869 Rocket 4.0 10:20:37 39° NW 10:21:56 54° WSW 10:26:27 10° S
Cosmos 2173 Rocket 4.4 10:23:07 25° NNE 10:26:37 56° E 10:32:38 10° SSE
Cosmos 2082 Rocket 2.8 10:23:24 10° SSW 10:29:09 60° SE 10:34:48 10° NE
Cosmos 1437 2.6 10:26:04 10° SSW 10:28:55 68° WSW 10:28:55 68° WSW
Cosmos 2221 Rocket 4.1 10:28:26 10° SSW 10:32:53 46° W 10:34:00 38° NW
TSX-5 4.4 10:32:14 37° NNW 10:34:22 73° NE 10:38:50 10° SE
Resurs 1-4 Rocket 2.6 10:33:49 34° NW 10:35:29 44° W 10:40:38 10° SSW
SJ 16-02 3.5 10:32:47 11° W 10:35:57 21° SW 10:39:22 10° S
ATLAS CENTAUR R/B 2.1 10:31:36 10° SW 10:36:29 66° SE 10:41:15 10° ENE
Okean 2 4.1 10:32:17 10° S 10:36:29 54° ESE 10:39:01 22° NE
Cosmos 2100 Rocket 4.1 10:35:13 27° N 10:38:43 70° E 10:44:58 10° SSE
USA 290 4.5 10:35:59 10° S 10:38:50 26° SE 10:41:39 10° ENE
USA 267 3.2 10:36:26 10° ENE 10:43:04 78° NNW 10:49:44 10° WSW
Cosmos 1271 Rocket 4.3 10:43:12 10° SW 10:46:21 22° W 10:46:34 22° W
Cosmos 1975 4.0 10:45:27 22° NE 10:47:35 37° E 10:51:28 10° SSE
CBERS-1 4.0 10:45:03 30° N 10:47:41 73° WNW 10:52:55 10° SSW
ALOS 2 3.3 10:46:25 10° S 10:50:41 45° WSW 10:52:25 30° WNW
COSMOS 2406 3.3 10:45:57 10° SW 10:51:41 60° WNW 10:55:18 23° N
CZ-2D R/B 3.0 10:50:36 29° NW 10:52:24 36° W 10:57:32 10° SSW
Cosmos 1459 Rocket 4.1 10:49:08 26° N 10:53:02 80° E 10:59:32 10° SSE
NPP 4.3 10:52:08 30° NW 10:54:00 39° W 10:59:08 10° SSW
Meteor 1-21 4.4 10:50:30 10° SSW 10:56:23 74° ESE 11:01:33 13° NNE
IRIDIUM 104 4.4 10:54:23 32° NNW 10:56:50 66° W 11:02:10 10° S
Meteor 1-11 Rocket 4.2 10:56:10 28° NW 10:59:13 56° WSW 11:05:09 10° S
IRS-P3 4.1 10:57:41 22° NNE 11:01:20 79° WNW 11:06:49 10° SSW
Cosmos 1544 3.1 11:01:04 39° N 11:02:23 80° E 11:06:12 10° SSE
Cosmos 2278 Rocket 3.0 10:59:27 22° N 11:02:47 44° ENE 11:08:12 10° SE
Cosmos 1536 3.6 11:01:30 31° WNW 11:02:48 40° WSW 11:06:42 10° S
Cosmos 1743 2.7 11:02:01 39° NNW 11:03:23 79° WSW 11:07:23 10° S
IDEFIX/ARIANE 42P 2.8 10:58:29 11° NNE 11:03:32 71° ESE 11:08:49 10° SSW
BREEZE-M DEB (TANK) 3.9 11:07:06 32° N 11:07:06 32° N 11:11:28 10° ENE
Cosmos 2016 Rocket 4.2 11:03:07 21° N 11:07:37 74° E 11:14:05 10° SSE
Cosmos 2298 Rocket 4.2 11:06:20 28° NW 11:09:13 67° WSW 11:14:38 10° SSE
Cosmos 1674 Rocket 4.3 11:07:42 10° SSW 11:11:53 38° W 11:13:20 30° NW
NOSS 3-4 (A) 4.1 11:07:30 18° WNW 11:13:55 78° SW 11:21:29 10° SE
NOSS 3-4 (C) 4.1 11:07:36 18° WNW 11:14:00 78° SW 11:21:35 10° SE
CZ-4B R/B 3.7 11:12:22 29° NNW 11:14:27 46° W 11:19:08 10° SSW
Cosmos 1842 3.2 11:10:58 10° SSW 11:14:56 68° W 11:16:42 31° N
Cosmos 1844 Rocket 3.2 11:11:39 21° WNW 11:15:18 53° SW 11:20:52 10° SSE
Cosmos 1378 Rocket 4.1 11:11:25 10° SSW 11:15:38 42° W 11:17:12 30° NW
USA 307 4.1 11:14:32 24° N 11:15:40 27° NE 11:19:21 10° E
Cosmos 1733 Rocket 3.6 11:13:57 29° NW 11:15:55 47° WSW 11:20:21 10° S
RESURS DK-1 2.3 11:17:17 32° NW 11:19:09 87° SW 11:23:23 10° SE
Cosmos 1125 Rocket 3.5 11:17:02 27° NW 11:20:00 78° WSW 11:25:23 10° SSE
Aureole 2 Rocket 2.3 11:19:15 42° WNW 11:20:03 61° WSW 11:23:15 10° SSE
USA 308 4.1 11:19:11 24° N 11:20:28 29° NNE 11:24:14 10° E
NOSS 3-1 (A) 4.5 11:14:49 10° WSW 11:22:02 53° SSE 11:28:02 10° E
Cosmos 2150 Rocket 4.3 11:19:46 24° NW 11:22:46 58° SW 11:28:01 10° SSE
CZ-4C R/B 2.9 11:19:41 22° NW 11:24:57 74° NE 11:31:33 10° SE
Cosmos 1844 4.2 11:21:52 20° WNW 11:25:47 55° SW 11:31:35 10° SSE
Cosmos 1908 Rocket 3.5 11:23:41 27° NNW 11:26:04 81° WSW 11:30:32 10° S
Helios 1A 3.2 11:22:15 10° S 11:26:30 62° WSW 11:28:38 27° NW
Cosmos 2263 Rocket 4.1 11:22:29 10° WSW 11:26:58 23° SSW 11:31:28 10° SSE
YAOGAN 11 4.2 11:24:19 10° SSE 11:28:45 69° WSW 11:31:08 26° NNW
ASTEX 1 4.0 11:26:28 25° NW 11:28:47 40° W 11:33:31 10° SSW
Cosmos 1782 Rocket 3.8 11:26:24 20° N 11:29:24 68° E 11:33:53 10° SSE
ERS-1 4.5 11:27:50 18° N 11:31:36 63° WNW 11:36:37 10° SSW
Cosmos 1802 Rocket 4.1 11:27:54 22° NNW 11:32:17 72° WSW 11:38:39 10° S
IRS-1D 4.4 11:30:52 24° NW 11:32:58 32° W 11:37:37 10° SSW
ATLAS 2AS CENTAUR R/B 2.7 11:28:23 18° WNW 11:33:13 70° SSW 11:39:43 10° SE
MINOTAUR 4 R/B 4.2 11:30:20 10° SSE 11:34:02 74° ENE 11:36:09 24° N
APEX 3.6 11:34:01 24° NNW 11:36:59 77° ENE 11:41:00 10° SE
Cosmos 1975 Rocket 3.1 11:34:03 10° SSW 11:38:33 67° W 11:41:53 17° N
Kosmos-1783 4.2 11:37:31 10° SSW 11:38:40 24° SSE 11:40:11 10° E
deb Kosmos-1763 4.0 11:35:19 10° SSW 11:39:02 67° WNW 11:42:30 11° NNE
NOSS 3-1 (C) 3.9 11:33:30 10° SW 11:40:41 70° SSE 11:46:36 10° ENE
Cosmos 1707 2.7 11:46:01 10° SSW 11:50:00 70° W 11:53:21 14° N
USA 215 3.7 11:43:38 10° ESE 11:50:05 52° NE 11:55:08 17° NW
Sich 1 Rocket 3.9 11:46:56 13° N 11:50:49 67° E 11:55:22 10° SSE
In-Cosmos 22 4.1 11:45:50 10° SSW 11:51:25 90° NW 11:56:48 10° NNE
Cosmos 1833 Rocket 3.5 11:46:30 10° SW 11:51:26 31° WNW 11:55:02 16° NNW
